This is the latest recevied weather packets stored in our database for station/object F4DVI. If no packets are shown the sender has not sent any weather packets the latest 10 day(s).
| Time | Temp. | Humidity | Pressure | Rain* | Wind** | Luminosity | Snow |
|---|---|---|---|---|---|---|---|
| 1777654122 | 17.78° C | 74% | 0 hPa | 1.27 mm | - | - | - |
| 1777653822 | 17.22° C | 74% | 0 hPa | 1.78 mm | - | - | - |
| 1777653522 | 17.78° C | 74% | 0 hPa | 2.29 mm | - | - | - |
| 1777653222 | 17.78° C | 74% | 0 hPa | 2.79 mm | - | - | - |
| 1777652922 | 17.78° C | 74% | 0 hPa | 3.05 mm | - | - | - |
| 1777652622 | 17.22° C | 74% | 0 hPa | 3.05 mm | - | - | - |
| 1777652322 | 17.22° C | 74% | 0 hPa | 3.05 mm | - | - | - |
| 1777652022 | 17.78° C | 74% | 0 hPa | 3.05 mm | - | - | - |
| 1777651722 | 16.67° C | 73% | 0 hPa | 3.05 mm | - | - | - |
| 1777651422 | 17.22° C | 73% | 0 hPa | 3.05 mm | - | - | - |
| 1777651122 | 17.78° C | 72% | 0 hPa | 2.79 mm | - | - | - |
| 1777650822 | 17.78° C | 71% | 0 hPa | 2.03 mm | - | - | - |
| 1777650522 | 17.78° C | 71% | 0 hPa | 1.78 mm | - | - | - |
| 1777650222 | 18.33° C | 69% | 0 hPa | 1.27 mm | - | - | - |
| 1777649922 | 18.33° C | 69% | 0 hPa | 0.76 mm | - | - | - |
| 1777649622 | 18.89° C | 67% | 0 hPa | 0.25 mm | - | - | - |
| 1777649322 | 19.44° C | 66% | 0 hPa | 0 mm | - | - | - |
| 1777649022 | 19.44° C | 66% | 0 hPa | 0 mm | - | - | - |
| 1777648722 | 19.44° C | 64% | 0 hPa | 0 mm | - | - | - |
| 1777648422 | 19.44° C | 63% | 0 hPa | 0 mm | - | - | - |
| 1777648122 | 20° C | 61% | 0 hPa | 0 mm | - | - | - |
| 1777647822 | 20° C | 59% | 0 hPa | 0 mm | - | - | - |
| 1777647522 | 20° C | 57% | 0 hPa | 0 mm | - | - | - |
| 1777647222 | 20.56° C | 55% | 0 hPa | 0 mm | - | - | - |
| 1777646922 | 21.67° C | 51% | 0 hPa | 0 mm | - | - | - |
* Rain latest hour (hover to see other rain measurements)
** Current wind speed in m/s (hover to see current wind gust speed)